TimeCST,TemperatureF,Dew PointF,Humidity,Sea Level PressureIn,VisibilityMPH,Wind Direction,Wind SpeedMPH,Gust SpeedMPH,PrecipitationIn,Events,Conditions,WindDirDegrees,DateUTC
12:53 AM,43.0,34.0,71,30.08,10.0,ESE,8.1,-,N/A,,Clear,120,2013-02-04 06:53:00
1:53 AM,43.0,35.1,74,30.07,10.0,SE,5.8,-,N/A,,Clear,130,2013-02-04 07:53:00
2:53 AM,42.1,35.1,76,30.05,10.0,SSE,5.8,-,N/A,,Clear,160,2013-02-04 08:53:00
4:53 AM,44.1,33.1,65,30.04,10.0,SSE,5.8,-,N/A,,Clear,150,2013-02-04 10:53:00
5:53 AM,43.0,32.0,65,30.03,10.0,South,4.6,-,N/A,,Clear,190,2013-02-04 11:53:00
6:53 AM,43.0,32.0,65,30.01,10.0,South,5.8,-,N/A,,Clear,170,2013-02-04 12:53:00
7:53 AM,46.0,32.0,58,30.03,10.0,SSW,3.5,-,N/A,,Clear,200,2013-02-04 13:53:00
8:53 AM,48.0,33.1,56,30.04,10.0,SW,3.5,-,N/A,,Mostly Cloudy,230,2013-02-04 14:53:00
9:53 AM,50.0,33.1,52,30.04,10.0,South,10.4,-,N/A,,Overcast,190,2013-02-04 15:53:00
10:53 AM,53.1,34.0,48,30.03,10.0,South,12.7,-,N/A,,Clear,180,2013-02-04 16:53:00
11:53 AM,55.0,34.0,45,30.01,10.0,SSW,9.2,-,N/A,,Overcast,200,2013-02-04 17:53:00
12:53 PM,53.1,39.9,61,29.98,10.0,SSW,8.1,-,N/A,Rain,Light Rain,200,2013-02-04 18:53:00
1:53 PM,50.0,44.1,80,29.95,10.0,Calm,Calm,-,0.03,Rain,Light Rain,0,2013-02-04 19:53:00
2:53 PM,51.1,45.0,80,29.92,10.0,SSE,5.8,-,0.02,Rain,Light Rain,160,2013-02-04 20:53:00
3:53 PM,50.0,45.0,83,29.92,10.0,South,5.8,-,0.00,Rain,Light Rain,180,2013-02-04 21:53:00
4:04 PM,50.0,44.6,82,29.91,10.0,SSW,5.8,-,0.00,Rain,Light Rain,200,2013-02-04 22:04:00
4:20 PM,50.0,46.4,87,29.91,10.0,South,4.6,-,0.01,,Mostly Cloudy,170,2013-02-04 22:20:00
4:53 PM,50.0,45.0,83,29.91,10.0,SSE,5.8,-,0.01,,Overcast,160,2013-02-04 22:53:00
5:53 PM,50.0,45.0,83,29.90,10.0,SSE,4.6,-,N/A,,Overcast,160,2013-02-04 23:53:00
6:53 PM,48.9,46.0,90,29.93,10.0,NNW,5.8,-,0.00,,Overcast,340,2013-02-05 00:53:00
7:27 PM,50.0,46.4,87,29.93,10.0,Calm,Calm,-,N/A,,Overcast,0,2013-02-05 01:27:00
7:53 PM,48.9,46.0,90,29.94,10.0,NNW,4.6,-,N/A,,Overcast,340,2013-02-05 01:53:00
8:53 PM,48.9,46.9,93,29.96,10.0,Calm,Calm,-,0.00,,Overcast,0,2013-02-05 02:53:00
9:11 PM,48.2,46.4,93,29.96,10.0,Calm,Calm,-,N/A,,Overcast,0,2013-02-05 03:11:00
9:53 PM,48.9,48.0,97,29.96,10.0,Calm,Calm,-,N/A,,Overcast,0,2013-02-05 03:53:00
10:53 PM,48.9,48.0,97,29.96,10.0,Calm,Calm,-,N/A,,Overcast,0,2013-02-05 04:53:00
11:53 PM,48.9,48.0,97,29.96,10.0,Calm,Calm,-,N/A,,Overcast,0,2013-02-05 05:53:00